GW6774 Weather Reports


time (UTC)temp
F
wind
direction
speed
knots
gust
knots
rain 1hr
in
rain 24hr
in
rain mn
in
humidity
%
barometer
mb
20260507202630 74 255 0.9 5.2 0.00 0.69 0.67 74 1010.8
20260507202130 73 309 1.7 5.2 0.00 0.69 0.67 77 1010.9
20260507201630 72 285 1.7 7.8 0.00 0.69 0.67 76 1010.9
20260507201130 72 292 2.6 7.8 0.00 0.69 0.67 75 1011.0
20260507200942 71 285 2.6 4.3 0.00 0.69 0.67 76 1010.9
20260507200130 73 258 2.6 4.3 0.00 0.69 0.67 75 1010.8
20260507195629 74 279 0.9 4.3 0.00 0.69 0.67 76 1010.9
20260507195131 72 299 1.7 4.3 0.00 0.69 0.67 77 1011.0
20260507194629 71 316 1.7 3.5 0.00 0.69 0.67 79 1011.0
20260507194131 71 173 0.9 4.3 0.00 0.69 0.67 79 1011.0
20260507193630 70 324 0.9 4.3 0.00 0.69 0.67 79 1011.2
20260507193129 71 278 1.7 5.2 0.00 0.69 0.67 80 1011.2
20260507192633 71 314 1.7 6.1 0.00 0.69 0.67 79 1011.1
20260507192130 72 340 1.7 6.1 0.00 0.69 0.67 80 1011.0
20260507191620 72 305 0.9 5.2 0.00 0.69 0.67 82 1010.9
20260507191434 70 237 0.9 9.6 0.00 0.69 0.67 80 1011.0
20260507190618 70 330 2.6 9.6 0.00 0.69 0.67 81 1010.9
20260507190422 71 300 1.7 6.1 0.00 0.69 0.67 83 1011.0
20260507185618 71 319 2.6 9.6 0.00 0.69 0.67 80 1010.9
20260507185118 72 340 2.6 9.6 0.00 0.69 0.67 79 1010.9
20260507184905 72 274 1.7 2.6 0.00 0.69 0.67 79 1010.8
20260507184118 72 261 0.0 2.6 0.00 0.69 0.67 79 1010.7
20260507183621 72 235 0.0 3.5 0.00 0.69 0.67 79 1010.7
20260507183117 72 279 0.9 3.5 0.00 0.69 0.67 81 1010.6
20260507182616 72 245 1.7 3.5 0.00 0.69 0.67 80 1010.8
20260507182116 72 285 0.9 3.5 0.00 0.69 0.67 78 1010.8
20260507181935 72 283 1.7 3.5 0.00 0.69 0.67 78 1010.8
20260507181118 73 266 0.9 3.5 0.00 0.69 0.67 77 1010.9
20260507180619 73 292 0.9 3.5 0.00 0.69 0.67 76 1010.9
20260507180414 74 295 1.7 4.3 0.00 0.69 0.67 74 1010.9
20260507175616 74 261 1.7 4.3 0.00 0.69 0.67 79 1010.7
20260507175120 75 324 1.7 3.5 0.00 0.69 0.67 77 1010.7
20260507174616 74 306 0.9 2.6 0.00 0.69 0.67 77 1010.7
20260507174117 73 261 0.9 1.7 0.00 0.69 0.67 81 1010.8
20260507173623 72 285 0.9 2.6 0.00 0.69 0.67 82 1010.9
20260507173119 72 320 1.7 2.6 0.00 0.69 0.67 82 1011.0
20260507172617 73 288 0.9 3.5 0.00 0.69 0.67 84 1010.9
20260507172118 72 257 0.0 3.5 0.00 0.69 0.67 84 1010.9
20260507171618 73 276 0.9 1.7 0.00 0.69 0.67 83 1011.0
20260507171118 74 254 0.0 2.6 0.00 0.69 0.67 84 1011.1
20260507170619 73 310 0.9 2.6 0.00 0.69 0.67 81 1011.0
20260507170119 72 0 1.7 2.6 0.00 0.69 0.67 83 1011.2
20260507165618 72 73 0.9 2.6 0.00 0.69 0.67 85 1011.1
20260507165118 73 286 0.9 2.6 0.00 0.69 0.67 84 1011.1
20260507164617 72 300 0.0 2.6 0.00 0.69 0.67 88 1010.9
20260507164119 71 281 0.9 2.6 0.00 0.69 0.67 88 1011.1
20260507163618 70 279 0.9 1.7 0.00 0.69 0.67 86 1011.2
20260507163118 70 257 0.0 1.7 0.00 0.69 0.67 86 1011.2
20260507162617 71 261 0.9 1.7 0.00 0.69 0.67 88 1011.2
20260507162117 70 295 0.9 1.7 0.00 0.69 0.67 89 1011.3
20260507161617 70 345 0.0 2.6 0.00 0.69 0.67 89 1011.4
20260507161117 70 275 0.9 3.5 0.00 0.69 0.67 90 1011.3
20260507160619 70 3 0.0 3.5 0.00 0.69 0.67 91 1011.1
20260507160117 70 298 0.9 2.6 0.00 0.69 0.67 93 1011.2
20260507155620 70 317 1.7 2.6 0.00 0.69 0.67 91 1010.8
20260507155118 69 344 0.9 2.6 0.00 0.69 0.67 90 1010.7
20260507154618 68 305 0.0 1.7 0.01 0.69 0.67 92 1010.6
20260507154117 68 303 0.9 1.7 0.01 0.69 0.67 92 1010.5
20260507153618 68 3 0.9 1.7 0.01 0.69 0.67 93 1010.6
20260507153117 68 0 0.9 1.7 0.01 0.69 0.67 93 1010.6
20260507152618 67 93 0.0 0.9 0.01 0.69 0.67 93 1010.7
20260507152119 67 13 0.0 1.7 0.02 0.69 0.67 93 1010.7
20260507151618 67 334 0.9 1.7 0.02 0.69 0.67 93 1010.7
20260507151411 67 341 0.0 1.7 0.02 0.69 0.67 94 1010.7
20260507150910 68 16 0.0 1.7 0.02 0.69 0.67 95 1010.8
20260507150435 67 0 0.9 1.7 0.03 0.69 0.67 95 1010.8
20260507145617 66 327 0.9 1.7 0.04 0.66 0.67 94 1010.8
20260507145119 66 300 0.0 1.7 0.05 0.66 0.67 94 1010.9
20260507144617 66 299 0.9 2.6 0.04 0.66 0.66 94 1011.2
20260507144117 66 44 0.0 2.6 0.04 0.66 0.66 94 1010.9
20260507143618 66 272 0.9 2.6 0.04 0.66 0.66 94 1010.8
20260507143118 66 262 0.0 1.7 0.04 0.66 0.66 95 1010.7
20260507142912 66 10 0.0 0.9 0.04 0.66 0.66 95 1010.6
20260507142119 66 59 0.0 0.9 0.04 0.66 0.65 95 1010.7
20260507141920 66 56 0.0 1.7 0.04 0.66 0.65 95 1010.6
20260507141118 66 76 0.9 1.7 0.04 0.66 0.65 95 1010.7
20260507140616 66 336 0.9 1.7 0.05 0.66 0.65 95 1010.8
20260507140247 66 331 0.0 1.7 0.03 0.62 0.62 95 1010.4
20260507140216 65 295 0.9 0.9 0.04 0.66 0.64 95 1010.8
20260507135105 66 51 0.0 1.7 0.02 0.62 0.62 95 1010.1
20260507134607 66 44 0.0 3.5 0.02 0.62 0.62 95 1010.0
20260507134107 66 47 0.0 3.5 0.02 0.62 0.62 95 1010.2
20260507133913 65 92 0.0 4.3 0.07 0.62 0.62 94 1010.1
20260507133419 65 56 0.9 5.2 0.07 0.62 0.62 94 1010.2
20260507132603 65 63 0.9 5.2 0.07 0.62 0.61 94 1010.2
20260507132103 65 354 1.7 5.2 0.06 0.62 0.61 94 1010.0
20260507131601 66 0 2.6 12.2 0.06 0.62 0.61 95 1010.1
20260507131101 67 299 3.5 12.2 0.06 0.62 0.61 95 1010.2
20260507130604 68 4 3.5 10.4 0.05 0.62 0.60 95 1010.0
20260507130101 68 245 0.0 1.7 0.05 0.62 0.60 95 1009.7
20260507125854 68 243 0.0 1.7 0.05 0.57 0.60 95 1009.6
20260507125102 68 262 0.0 1.7 0.05 0.57 0.60 95 1009.6
20260507124851 68 252 0.0 1.7 0.06 0.57 0.60 95 1009.4
20260507124052 68 180 0.9 1.7 0.06 0.57 0.60 95 1009.4
20260507123552 68 264 0.0 1.7 0.01 0.57 0.55 95 1009.5
20260507123047 68 264 0.0 1.7 0.01 0.57 0.55 95 1009.5
20260507122541 67 264 0.0 1.7 0.01 0.57 0.55 95 1009.2
20260507122043 67 264 0.0 1.7 0.01 0.57 0.55 95 1009.2
20260507121543 67 183 0.0 1.7 0.02 0.57 0.55 95 1008.9
20260507121042 67 326 0.0 1.7 0.02 0.57 0.55 95 1008.8
20260507120536 67 0 0.0 1.7 0.02 0.57 0.55 95 1008.8
20260507120403 67 178 0.0 1.7 0.02 0.57 0.55 95 1008.6
20260507115824 67 200 0.0 1.7 0.02 0.55 0.55 95 1008.9
20260507115032 67 140 0.0 1.7 0.02 0.55 0.55 95 1008.9
20260507114531 67 145 0.0 1.7 0.01 0.55 0.54 95 1008.6
20260507114029 67 113 0.9 1.7 0.01 0.55 0.54 95 1008.6
20260507113648 67 288 0.0 3.5 0.01 0.55 0.54 95 1008.7
20260507113626 67 358 0.0 2.6 0.01 0.55 0.54 95 1008.6
20260507112530 67 89 0.9 3.5 0.01 0.55 0.54 95 1008.7
20260507112031 67 111 0.9 3.5 0.01 0.55 0.54 95 1008.6
20260507111529 67 223 0.0 2.6 0.00 0.55 0.53 95 1008.4
20260507111324 67 266 0.9 2.6 0.00 0.55 0.53 95 1008.3
20260507110844 67 175 0.9 1.7 0.00 0.55 0.53 95 1008.1
20260507110030 67 159 0.0 3.5 0.00 0.55 0.53 95 1008.4
20260507105529 67 224 0.9 3.5 0.00 0.55 0.53 95 1008.3
20260507105030 67 230 0.9 2.6 0.00 0.55 0.53 95 1008.6
20260507104530 67 195 0.9 1.7 0.01 0.55 0.53 95 1008.5
20260507104031 67 223 0.0 1.7 0.02 0.55 0.53 95 1008.5
20260507103526 67 341 0.9 1.7 0.02 0.55 0.53 95 1008.5
20260507103027 67 299 0.9 2.6 0.02 0.55 0.53 95 1008.5
20260507102524 67 148 1.7 2.6 0.02 0.55 0.53 95 1008.8
20260507102017 67 261 0.9 2.6 0.02 0.55 0.53 95 1009.0
20260507101520 67 266 1.7 3.5 0.09 0.55 0.53 95 1009.2
20260507101017 67 283 1.7 3.5 0.16 0.55 0.53 95 1009.2
20260507100517 67 86 0.9 2.6 0.17 0.55 0.53 95 1008.7
20260507100018 67 330 0.9 2.6 0.19 0.55 0.53 95 1009.0
20260507095518 67 293 0.0 2.6 0.21 0.36 0.53 95 1008.8
20260507095017 67 93 0.9 2.6 0.29 0.36 0.53 95 1008.7
20260507094518 67 248 1.7 2.6 0.37 0.36 0.52 95 1007.8
20260507094017 67 125 0.0 0.0 0.36 0.36 0.51 95 1009.3
20260507093517 67 56 0.0 0.0 0.36 0.36 0.51 95 1010.0
20260507093030 67 56 0.0 0.0 0.36 0.36 0.51 95 1009.4
20260507092806 67 56 0.0 0.9 0.36 0.36 0.51 95 1010.0
20260507092013 67 56 0.0 0.9 0.36 0.36 0.51 95 1009.4
20260507091510 67 79 0.9 0.9 0.29 0.36 0.43 95 1009.6
20260507091010 67 1 0.0 0.0 0.22 0.36 0.37 95 1010.4
20260507090510 67 1 0.0 0.0 0.22 0.36 0.35 95 1010.4
20260507090009 67 1 0.0 0.0 0.20 0.36 0.34 95 1010.1
20260507085505 67 1 0.0 0.0 0.18 0.16 0.31 95 1010.4
20260507085003 67 1 0.0 0.0 0.10 0.16 0.22 95 1010.3
20260507084516 67 1 0.0 0.0 0.01 0.16 0.15 95 1010.4
20260507084003 67 1 0.0 0.0 0.01 0.16 0.15 95 1010.2
20260507083502 67 1 0.0 0.0 0.01 0.16 0.15 95 1010.2
20260507083003 67 1 0.0 0.0 0.01 0.16 0.15 95 1010.2
20260507082502 67 1 0.0 0.0 0.01 0.16 0.15 95 1010.2
20260507082004 67 1 0.0 0.0 0.01 0.16 0.15 94 1010.3
20260507081503 67 266 0.0 0.0 0.01 0.16 0.15 94 1010.5
20260507081006 67 266 0.0 0.0 0.01 0.16 0.15 94 1010.4
20260507080501 67 266 0.0 0.0 0.00 0.16 0.14 94 1010.5
20260507080001 67 266 0.0 0.0 0.00 0.16 0.14 94 1010.5
20260507075800 67 266 0.0 0.0 0.00 0.16 0.14 94 1010.5
20260507075301 67 266 0.0 0.9 0.00 0.16 0.14 94 1010.3
20260507074502 67 266 0.0 1.7 0.00 0.16 0.14 94 1010.2
20260507074257 67 168 0.0 1.7 0.00 0.16 0.14 94 1010.1
20260507073502 67 59 0.0 0.0 0.01 0.16 0.14 94 1010.1
20260507073001 67 188 0.0 1.7 0.01 0.16 0.14 94 1010.3
20260507072501 67 188 0.0 1.7 0.01 0.16 0.14 94 1010.4
20260507072258 67 247 0.0 0.0 0.02 0.16 0.14 94 1010.5
20260507071753 67 247 0.0 0.0 0.02 0.16 0.14 94 1010.3
20260507071001 67 247 0.0 0.0 0.02 0.16 0.14 94 1010.2
20260507070504 67 272 0.0 0.0 0.03 0.16 0.14 94 1010.2
20260507070001 67 272 0.0 0.0 0.03 0.13 0.14 94 1010.2
20260507065502 67 272 0.0 0.0 0.03 0.13 0.14 94 1010.1
20260507065002 67 272 0.0 0.0 0.03 0.13 0.14 94 1009.9
20260507064801 67 262 0.0 1.7 0.03 0.13 0.14 94 1009.9
20260507064259 67 131 0.0 1.7 0.04 0.13 0.13 94 1009.8
20260507063758 67 133 0.0 0.9 0.03 0.13 0.13 94 1010.3
20260507062956 67 351 0.0 0.9 0.04 0.13 0.13 94 1010.5
20260507062455 68 333 0.0 0.9 0.04 0.13 0.13 94 1010.6
20260507061955 68 331 0.0 0.9 0.04 0.13 0.12 93 1010.9
20260507061447 68 331 0.0 0.9 0.04 0.13 0.12 93 1011.0
20260507060947 68 331 0.0 0.9 0.05 0.13 0.12 93 1010.9
20260507060556 68 166 0.9 2.6 0.05 0.08 0.11 93 1011.0
20260507060535 68 0 0.0 1.7 0.05 0.13 0.11 93 1011.1
20260507060423 68 59 0.0 1.7 0.05 0.08 0.11 93 1011.3
20260507060318 68 23 0.9 1.7 0.05 0.08 0.11 93 1010.9
20260507060148 68 235 0.0 1.7 0.05 0.08 0.11 93 1011.0
20260507054443 68 166 0.9 2.6 0.05 0.08 0.11 93 1011.0
20260507053941 68 171 0.9 2.6 0.05 0.08 0.10 93 1011.0
20260507053434 68 306 0.9 2.6 0.05 0.08 0.10 93 1011.4
20260507052930 68 248 0.0 2.6 0.04 0.08 0.09 93 1011.8
20260507052430 68 281 0.0 1.7 0.05 0.08 0.09 93 1011.8
20260507051931 68 230 0.0 3.5 0.08 0.08 0.08 93 1011.9
20260507051428 69 197 0.9 3.5 0.08 0.08 0.08 93 1011.9
20260507050929 69 8 0.0 1.7 0.07 0.08 0.06 93 1012.1
20260507050427 69 319 0.0 1.7 0.06 0.08 0.06 93 1012.0
20260507050222 69 319 0.0 1.7 0.06 0.02 0.06 93 1011.9
20260507045726 69 296 0.0 1.7 0.06 0.02 0.06 93 1011.7
20260507044923 69 282 0.0 1.7 0.06 0.02 0.06 93 1011.6
20260507044419 69 231 0.0 1.7 0.06 0.02 0.06 93 1011.8
20260507043917 69 140 0.0 1.7 0.05 0.02 0.05 92 1011.8
20260507043416 69 213 0.0 0.0 0.05 0.02 0.05 92 1012.1
20260507042916 70 213 0.0 0.0 0.05 0.02 0.05 91 1012.3
20260507042416 70 313 0.0 0.0 0.04 0.02 0.03 90 1012.1
20260507042011 70 319 0.0 1.7 0.00 0.02 0.00 89 1012.3
20260507041949 70 312 0.0 0.0 0.00 0.02 0.00 89 1012.5
20260507040915 70 319 0.0 1.7 0.00 0.02 0.00 89 1012.1
20260507040416 70 344 0.9 1.7 0.00 0.02 0.00 89 1011.8
20260507035919 70 306 0.9 1.7 0.00 0.02 0.02 89 1011.6
20260507035416 70 275 0.9 1.7 0.00 0.02 0.02 89 1011.4
20260507034916 70 255 0.0 1.7 0.00 0.02 0.02 89 1011.4
20260507034414 70 255 0.0 1.7 0.00 0.02 0.02 89 1011.1
20260507033916 70 274 0.0 1.7 0.00 0.02 0.02 89 1011.2
20260507033712 70 193 0.9 1.7 0.00 0.02 0.02 89 1011.2
20260507032915 70 55 0.0 1.7 0.00 0.02 0.02 89 1011.6
20260507032724 71 55 0.0 1.7 0.00 0.02 0.02 89 1011.9
20260507031920 71 261 0.0 1.7 0.01 0.02 0.02 89 1012.5
20260507031417 70 262 0.0 1.7 0.01 0.02 0.02 90 1012.2
20260507030916 70 54 0.0 1.7 0.01 0.02 0.02 90 1012.2
20260507030418 70 258 0.0 1.7 0.01 0.02 0.02 91 1012.2
20260507030239 70 258 0.0 1.7 0.02 0.01 0.02 91 1011.9
20260507025429 70 258 0.0 0.9 0.02 0.01 0.02 91 1011.5
20260507025213 70 276 0.0 1.7 0.02 0.01 0.02 91 1011.6
20260507024418 70 276 0.0 1.7 0.02 0.01 0.02 91 1012.0
20260507023917 70 276 0.0 0.0 0.02 0.01 0.02 90 1011.9
20260507023417 71 276 0.0 0.0 0.02 0.01 0.02 89 1011.8
20260507023212 71 276 0.0 0.0 0.02 0.01 0.02 89 1011.6
20260507022416 71 276 0.0 0.0 0.02 0.01 0.02 88 1011.6
20260507021917 71 276 0.0 0.0 0.01 0.01 0.01 87 1011.9
20260507021710 72 276 0.0 0.0 0.01 0.01 0.01 86 1012.0
20260507021210 72 276 0.0 1.7 0.01 0.01 0.01 85 1012.0
20260507020415 72 276 0.0 1.7 0.01 0.01 0.01 84 1011.7
20260507015916 72 276 0.0 1.7 0.00 0.00 0.00 84 1011.6
20260507015415 72 276 0.0 1.7 0.00 0.00 0.00 83 1012.0
20260507014916 73 276 0.0 1.7 0.00 0.00 0.00 82 1012.1
20260507014416 73 276 0.0 1.7 0.00 0.00 0.00 80 1011.9
20260507013915 74 278 0.0 1.7 0.00 0.00 0.00 79 1012.0
20260507013415 75 238 0.9 1.7 0.00 0.00 0.00 75 1012.0
20260507012916 76 259 0.0 1.7 0.00 0.00 0.00 72 1012.0
20260507012416 76 190 0.0 1.7 0.00 0.00 0.00 72 1011.9
20260507011915 76 275 0.0 0.9 0.00 0.00 0.00 71 1011.8
20260507011514 77 28 0.0 2.6 0.00 0.00 0.00 70 1011.6
20260507011452 77 344 0.0 1.7 0.00 0.00 0.00 71 1011.6
20260507010709 77 283 1.7 2.6 0.00 0.00 0.00 70 1011.4
20260507010033 77 334 0.0 1.7 0.00 0.00 0.00 70 1011.8
20260507010001 77 317 0.0 1.7 0.00 0.00 0.00 70 1011.7
20260507004902 77 63 0.9 2.6 0.00 0.00 0.00 70 1011.7
20260507004402 77 224 0.0 2.6 0.00 0.00 0.00 69 1011.8
20260507003901 77 114 0.9 2.6 0.00 0.00 0.00 69 1011.8
20260507003401 77 155 0.9 1.7 0.00 0.00 0.00 70 1011.8
20260507002902 77 258 0.9 1.7 0.00 0.00 0.00 70 1011.7
20260507002401 77 237 0.0 1.7 0.00 0.00 0.00 70 1011.6
20260507002157 77 231 0.0 1.7 0.00 0.00 0.00 71 1011.4
20260507001524 78 54 0.0 2.6 0.00 0.00 0.00 70 1011.6
20260507001458 77 59 0.0 2.6 0.00 0.00 0.00 70 1011.8
20260507000406 77 185 0.9 2.6 0.00 0.00 0.00 70 1011.5
20260506235902 77 266 0.9 2.6 0.00 0.00 0.00 70 1011.2
20260506235359 78 271 0.9 1.7 0.00 0.00 0.00 69 1011.1
20260506234853 78 298 0.0 1.7 0.00 0.00 0.00 68 1011.1
20260506234352 78 336 0.0 1.7 0.00 0.00 0.00 68 1011.0
20260506233853 78 341 0.0 1.7 0.00 0.00 0.00 67 1010.8
20260506233351 79 329 0.0 0.9 0.00 0.00 0.00 66 1010.8
20260506232850 79 329 0.0 1.7 0.00 0.00 0.00 66 1010.8
20260506232345 79 343 0.0 1.7 0.00 0.00 0.00 65 1011.0
20260506231847 79 329 0.0 4.3 0.00 0.00 0.00 65 1011.0
20260506231346 79 329 0.9 4.3 0.00 0.00 0.00 65 1010.9
20260506231133 79 350 0.9 2.6 0.00 0.00 0.00 66 1011.0
20260506230342 79 288 0.0 2.6 0.00 0.00 0.00 66 1010.9
20260506230157 80 245 0.0 1.7 0.00 0.00 0.00 66 1011.3
20260506225336 80 258 0.0 2.6 0.00 0.00 0.00 65 1011.3
20260506224836 80 258 0.9 2.6 0.00 0.00 0.00 64 1011.3
20260506224337 80 254 0.9 2.6 0.00 0.00 0.00 64 1011.3
20260506223936 80 130 0.9 1.7 0.00 0.00 0.00 63 1011.3
20260506223913 80 259 0.0 2.6 0.00 0.00 0.00 64 1011.3
20260506222833 81 316 0.9 2.6 0.00 0.00 0.00 63 1011.2
20260506222331 81 266 0.9 3.5 0.00 0.00 0.00 63 1011.2
20260506221830 81 13 1.7 3.5 0.00 0.00 0.00 62 1011.0
20260506221633 82 72 0.9 3.5 0.00 0.00 0.00 63 1011.0
20260506220829 82 299 0.9 3.5 0.00 0.00 0.00 61 1011.1
20260506220329 82 235 0.0 1.7 0.00 0.00 0.00 63 1011.0
20260506215829 82 237 0.9 2.6 0.00 0.00 0.00 61 1011.1
20260506215639 82 251 0.0 2.6 0.00 0.00 0.00 61 1011.0
20260506214826 82 274 0.9 3.5 0.00 0.00 0.00 61 1011.1
20260506214326 82 78 1.7 3.5 0.00 0.00 0.00 61 1011.1
20260506213826 82 109 0.0 2.6 0.00 0.00 0.00 62 1011.1
20260506213617 82 118 0.9 2.6 0.00 0.00 0.00 61 1011.2
20260506212820 82 190 0.0 2.6 0.00 0.00 0.00 62 1011.1
20260506212318 82 173 0.9 2.6 0.00 0.00 0.00 61 1011.3
20260506212121 83 319 0.9 1.7 0.00 0.00 0.00 60 1011.1
20260506211609 83 200 0.9 3.5 0.00 0.00 0.00 60 1011.0
20260506211112 83 305 0.9 3.5 0.00 0.00 0.00 59 1011.2
20260506210610 83 186 0.9 3.5 0.00 0.00 0.00 58 1011.4
20260506205801 84 116 0.9 3.5 0.00 0.00 0.00 58 1011.5
20260506205305 84 128 0.9 2.6 0.00 0.00 0.00 58 1011.5
20260506204802 84 274 0.9 2.6 0.00 0.00 0.00 56 1011.8
20260506204302 84 254 0.0 2.6 0.00 0.00 0.00 56 1011.9
20260506203802 83 192 0.9 2.6 0.00 0.00 0.00 57 1012.0
20260506203302 83 313 0.9 3.5 0.00 0.00 0.00 57 1012.0